Terminal Aerodrome Forecast
Issued by NWS Charleston, WV

Current Version | Previous Version | Graphics & Text | Print | Product List | Glossary On
Versions: 1 2 3 4 5 6 7 8 9 10 11 12 13 14 15 16 17 18 19 20 21 22 23 24 25 26 27
174
FTUS41 KRLX 062328
TAFEKN
TAF
KEKN 062328Z 0700/0724 15005KT 6SM -RA OVC025
     FM070300 23004KT 4SM -RA OVC007
     FM070800 28007KT 5SM -RA BKN011
     FM071300 28005KT P6SM BKN018
     FM071600 28004KT P6SM BKN250=

USA.gov is the U.S. government's official web portal to all federal, state and local government web resources and services.